Simultaneous Nadir Overpasses (SNOs) Predictions

Prediction of SNOs between AQUA and TERRA Satellite Orbit:

Table of predicted SNOs for the next 14.0 days since TLE Epoch: 12/31/1999
Index Date (AQUA) Time (AQUA) AQUA Lat,Lon Date (TERRA) Time (TERRA) TERRA Lat,Lon Distance(km) Time Diff (sec)
1 01/01/2000 03:46:35 90.00,-156.77 01/01/2000 03:46:35 90.00,-156.77 0.00 0
2 01/02/2000 07:33:17 90.00, 145.41 01/02/2000 07:33:17 90.00, 145.41 0.00 0
3 01/03/2000 11:19:57 90.00, 87.61 01/03/2000 11:19:57 90.00, 87.61 0.00 0
4 01/04/2000 15:06:36 90.00, 29.80 01/04/2000 15:06:36 90.00, 29.80 0.00 0
5 01/05/2000 18:53:16 90.00, -28.00 01/05/2000 18:53:16 90.00, -28.00 0.00 0
6 01/06/2000 22:39:54 90.00, -85.80 01/06/2000 22:39:54 90.00, -85.80 0.00 0
7 01/08/2000 02:26:35
